Tracking 27079 objects as of 23-Mar-2023
HD Live streaming from Space Station
objects crossing your sky now

BREEZE-M R/B

Track BREEZE-M R/B now!


NORAD ID: 40278
Int'l Code: 2014-064B
Perigee: 34,653.2 km
Apogee: 39,889.3 km
Inclination: 6.2 °
Period: 1,512.2 minutes
Semi major axis: 43642 km
RCS: Unknown
Launch date: October 21, 2014
Source: Commonwealth of Independent States (former USSR) (CIS)
Launch site: TYURATAM MISSILE AND SPACE COMPLEX (TTMTR)

Note: This is a ROCKET BODY
Your satellite tracking list
Your tracking list is empty




NASA's NSSDC Master Catalog

Two Line Element Set (TLE):
1 40278U 14064B   23081.76560294 -.00000211  00000-0  00000-0 0  9994
2 40278   6.2180  73.8391 0599891 189.9191 169.0797  0.95223032 29264
Source of the keplerian elements: AFSPC